Weather History for EHGG - June, 2013

Change the Weather History Date:

Saturday, June 1, 2013

  Actual Average Record
Temperature  
Mean Temperature 49 °F -  
Max Temperature 52 °F 67 °F 80 °F (2003)
Min Temperature 46 °F 49 °F 39 °F (1999)
Degree Days  
Heating Degree Days 16    
Moisture  
Dew Point 48 °F    
Average Humidity 91    
Maximum Humidity 100    
Minimum Humidity 74    
Precipitation  
Precipitation 0.00 in 0.09 in - ()
Sea Level Pressure  
Sea Level Pressure 30.01 in    
Wind  
Wind Speed 14 mph ()    
Max Wind Speed 18 mph    
Max Gust Speed -    
Visibility 5.4 miles    
Events      
Averages and records for this station are not official NWS values.
T = Trace of Precipitation, MM = Missing Value Source: Averaged Metar Reports

Daily Weather History Graph

Daily Weather History Graph

Search for Another Location

Airport or City:

Trip Planner

Search our weather history database for the weather conditions in past years. The results will help you decide how hot, cold, wet, or windy it might be!

Date:

Astronomy

Jun. 01, 2013 Rise Set
Actual Time 5:13 AM CEST 9:50 PM CEST
Civil Twilight 4:24 AM CEST 10:39 PM CEST
Nautical Twilight 3:07 AM CEST 11:57 PM CEST
Astronomical Twilight 2:03 AM CEST 12:59 AM CEST
Moon 1:58 AM CEST (6/1) 2:09 PM CEST (6/1)
Length of Visible Light 18h 14m
Length of Day
16h 36m
Last Quarter, 43% of the Moon is Illuminated
Jun 1
Last Quarter
Jun 8
New
Jun 16
First Quarter
Jun 23
Full
Jun 30
Last Quarter

Hourly Weather History & Observations

Time (CEST) Temp. Windchill Dew Point Humidity Pressure Visibility Wind Dir Wind Speed Gust Speed Precip Events Conditions
12:25 AM 50.0 °F - 50.0 °F 100% 29.92 in 4.3 mi NNW 16.1 mph - N/A   Overcast
12:55 AM 50.0 °F - 50.0 °F 100% 29.92 in - NNW 15.0 mph - N/A   Overcast
1:25 AM 50.0 °F - 50.0 °F 100% 29.92 in 4.3 mi NNW 15.0 mph - N/A   Overcast
1:55 AM 50.0 °F - 48.2 °F 94% 29.92 in 3.1 mi NNW 18.4 mph - N/A   Overcast
2:00 AM 50 °F - 49 °F 95% 29.92 in 4 mi NNW 15.7 mph - -   Mist
2:25 AM 50.0 °F - 48.2 °F 94% 29.92 in - NNW 13.8 mph - N/A   Overcast
2:55 AM 50.0 °F - 48.2 °F 94% 29.92 in - NNW 15.0 mph - N/A   Overcast
3:25 AM 50.0 °F - 50.0 °F 100% 29.92 in 3.7 mi NNW 12.7 mph - N/A   Overcast
3:55 AM 50.0 °F - 50.0 °F 100% 29.92 in 3.7 mi NNW 12.7 mph - N/A   Overcast
4:25 AM 50.0 °F - 48.2 °F 94% 29.92 in 3.7 mi NW 15.0 mph - N/A   Overcast
4:55 AM 50.0 °F - 48.2 °F 94% 29.92 in 3.7 mi NNW 15.0 mph - N/A   Overcast
5:00 AM 49 °F - 49 °F 98% 29.94 in 4 mi NNW 15.7 mph - -   Mist
5:25 AM 50.0 °F - 48.2 °F 94% 29.92 in 3.1 mi NNW 13.8 mph - N/A   Overcast
5:55 AM 50.0 °F - 48.2 °F 94% 29.92 in 4.3 mi NNW 16.1 mph - N/A   Overcast
6:25 AM 50.0 °F - 48.2 °F 94% 29.95 in 3.7 mi NNW 13.8 mph - N/A   Overcast
6:55 AM 50.0 °F - 48.2 °F 94% 29.95 in 3.7 mi NNW 12.7 mph - N/A   Overcast
7:25 AM 48.2 °F - 48.2 °F 100% 29.95 in 3.7 mi NNW 13.8 mph - N/A   Overcast
7:55 AM 48.2 °F - 48.2 °F 100% 29.95 in 4.3 mi NNW 12.7 mph - N/A   Overcast
8:00 AM 49 °F - 48 °F 96% 29.97 in 4 mi NNW 15.7 mph - -   Mist
8:25 AM 48.2 °F - 48.2 °F 100% 29.95 in 3.7 mi NNW 13.8 mph - N/A   Overcast
8:55 AM 50.0 °F - 48.2 °F 94% 29.98 in 3.7 mi NNW 15.0 mph - N/A   Overcast
9:25 AM 50.0 °F - 48.2 °F 94% 29.98 in 4.3 mi NNW 13.8 mph - N/A   Overcast
9:55 AM 50.0 °F - 48.2 °F 94% 29.98 in 4.3 mi NW 15.0 mph - N/A   Overcast
10:25 AM 50.0 °F - 48.2 °F 94% 29.98 in 4.3 mi NW 13.8 mph - N/A   Overcast
10:55 AM 50.0 °F - 48.2 °F 94% 29.98 in 5.6 mi NW 15.0 mph - N/A   Overcast
11:00 AM 50 °F - 49 °F 93% 30.01 in 6 mi NNW 13.4 mph - -   Overcast
11:25 AM 50.0 °F - 48.2 °F 94% 30.01 in 6.2 mi NNW 12.7 mph - N/A   Overcast
11:55 AM 50.0 °F - 48.2 °F 94% 30.01 in 6.2 mi NNW 16.1 mph - N/A   Overcast
12:25 PM 50.0 °F - 48.2 °F 94% 30.01 in 6.2 mi NNW 16.1 mph - N/A   Overcast
12:55 PM 50.0 °F - 48.2 °F 94% 30.01 in 6.2 mi NNW 12.7 mph - N/A   Overcast
1:25 PM 51.8 °F - 48.2 °F 88% 30.01 in 6.2 mi NW 16.1 mph - N/A   Overcast
1:55 PM 51.8 °F - 48.2 °F 88% 30.04 in 6.2 mi NW 15.0 mph - N/A   Overcast
2:00 PM 51 °F - 49 °F 88% 30.04 in 9 mi NW 15.7 mph - -   Partly Cloudy
2:25 PM 51.8 °F - 48.2 °F 88% 30.04 in 6.2 mi NNW 16.1 mph - N/A   Overcast
2:55 PM 51.8 °F - 48.2 °F 88% 30.04 in 6.2 mi NNW 17.3 mph - N/A   Overcast
3:25 PM 51.8 °F - 48.2 °F 88% 30.04 in 6.2 mi NNW 15.0 mph - N/A   Overcast
3:55 PM 51.8 °F - 48.2 °F 88% 30.04 in 6.2 mi NNW 15.0 mph - N/A   Overcast
4:25 PM 51.8 °F - 48.2 °F 88% 30.06 in 6.2 mi NNW 16.1 mph - N/A   Overcast
4:55 PM 51.8 °F - 48.2 °F 88% 30.06 in 6.2 mi NNW 17.3 mph - N/A   Overcast
5:00 PM 51 °F - 49 °F 88% 30.07 in 6 mi NNW 17.9 mph - -   Overcast
5:25 PM 51.8 °F - 48.2 °F 88% 30.06 in 6.2 mi NNW 18.4 mph - N/A   Overcast
5:55 PM 51.8 °F - 48.2 °F 88% 30.06 in 6.2 mi NNW 16.1 mph - N/A   Overcast
6:25 PM 51.8 °F - 46.4 °F 82% 30.06 in 6.2 mi NNW 16.1 mph - N/A   Overcast
6:55 PM 51.8 °F - 46.4 °F 82% 30.06 in 6.2 mi NNW 16.1 mph - N/A   Overcast
7:25 PM 51.8 °F - 46.4 °F 82% 30.09 in 6.2 mi NNW 17.3 mph - N/A   Mostly Cloudy
7:55 PM 50.0 °F - 44.6 °F 82% 30.09 in 6.2 mi NNW 18.4 mph - N/A   Mostly Cloudy
8:00 PM 51 °F - 45 °F 74% 30.12 in 10 mi NNW 17.9 mph - -   Partly Cloudy
8:25 PM 50.0 °F - 44.6 °F 82% 30.09 in 6.2 mi NNW 17.3 mph - N/A   Scattered Clouds
8:55 PM 50.0 °F - 44.6 °F 82% 30.12 in 6.2 mi NNW 17.3 mph - N/A   Mostly Cloudy
9:25 PM 50.0 °F - 46.4 °F 87% 30.12 in 6.2 mi NNW 13.8 mph - N/A   Mostly Cloudy
9:55 PM 50.0 °F - 46.4 °F 87% 30.12 in 6.2 mi NNW 13.8 mph - N/A   Mostly Cloudy
10:25 PM 50.0 °F - 46.4 °F 87% 30.12 in 6.2 mi NW 11.5 mph - N/A   Mostly Cloudy
10:55 PM 48.2 °F - 44.6 °F 87% 30.15 in 6.2 mi NW 9.2 mph - N/A   Partly Cloudy
11:00 PM 48 °F - 45 °F 84% 30.16 in 9 mi NW 8.9 mph - -  
11:25 PM 46.4 °F 41.9 °F 44.6 °F 93% 30.15 in 6.2 mi NW 9.2 mph - N/A   Unknown
11:55 PM 46.4 °F 41.5 °F 44.6 °F 93% 30.15 in 6.2 mi NW 10.4 mph - N/A   Unknown